x

Nantucket Sound (44020) Wave Buoy

4:50 - Tue 30th Jun 2015 All times are EDT. -4 hours from GMT.

  • Sig Wave height 1.0ft
  • Swell Direction
  • Peak Period 8s
  • Average Period 4s
  • Wind
    7mph, 9mph gusts
  • Sea Temp 65°f
  • Ar Temp 69°f
  • Sea Pressure 1015.3mb
  • Nantucket Sound
  • Nantucket Sound

More Historic Weather Station data

Upgrade to MSW Pro to gain access to the past 30 days of data for over 8000 Wavebouys and Weather Stations around the globe.

Join Pro

Comparision Forecast

View Surf forecast
   
Ter 06/30 4:50 1ft 8s 4s 7 9 mph 1015.3mb 65f 69f
3:50 1ft 9s 4s 9
mph
1015.4mb 65f 68f
2:50 1ft 9s 4s 9
mph
1016.1mb 65f 68f
1:50 1ft 9s 4s 9 11 mph 1015.9mb 67f 68f
12:50 1.3ft 6s 4s 9 11 mph 1016mb 68f 68f
11:50 1.3ft 8s 4s 9 11 mph 1016.2mb 68f 68f
10:50 1.3ft 8s 4s 11 13 mph 1016.1mb 68f 67f
9:50 1ft 9s 4s 11 13 mph 1016mb 67f 67f
8:50 1ft 8s 4s 9 11 mph 1016.5mb 67f 67f
7:50 1ft 4s 4s 9
mph
1016.5mb 66f 66f
6:50 1ft 5s 3s 7
mph
1015.8mb 66f 66f
5:50 1ft 5s 3s 7 9 mph 1015.3mb 65f 66f
4:50 1ft 9s 3s 9 11 mph 1015.3mb 64f 65f
3:50 1.3ft 3s 3s 11
mph
1015.3mb 64f 66f
2:50 1.3ft 4s 4s 13 16 mph 1014.7mb 64f 66f
1:50 1.3ft 4s 4s 13 16 mph 1014.5mb 65f 66f
12:50 1.6ft 4s 4s 16 18 mph 1014.3mb 66f 66f
Seg 06/29 11:50 1.6ft 3s 4s 16 20 mph 1014.1mb 67f 66f
10:50 2ft 8s 4s 18 20 mph 1013.8mb 67f 66f
9:50 1.6ft 8s 4s 18 22 mph 1013.7mb 67f 66f
8:50 1.6ft 3s 3s 18 20 mph 1013.1mb 67f 66f
7:50 1.6ft 6s 3s 18 22 mph 1013mb 67f 66f
6:50 1.6ft 3s 3s 20 22 mph 1012.5mb 67f 66f
5:50 2ft 3s 3s 20 22 mph 1012.1mb 66f 66f
4:50 2.5ft 4s 3s 20 25 mph 1011.6mb 66f 66f
3:50 2ft 3s 3s 20 25 mph 1011.6mb 65f 65f
2:50 1.6ft 3s 3s 18 20 mph 1011.6mb 65f 66f
1:50 2ft 3s 4s 20 22 mph 1011.4mb 65f 65f
12:50 2ft 6s 4s 20 25 mph 1011.1mb 66f 65f
11:50 2ft 9s 4s 18 20 mph 1010.8mb 67f 65f
10:50 1.6ft 8s 4s 11 13 mph 1010.4mb 67f 64f
9:50 1.6ft 8s 4s 9 11 mph 1010.4mb 67f 61f
8:50 1.3ft 9s 4s 9 11 mph 1010.3mb 66f 59f
7:50 1.3ft 5s 4s 9
mph
1010.1mb 66f 58f
6:50 1.3ft 5s 4s 9 11 mph 1009.9mb 66f 58f
5:50 1.3ft 5s 4s 7 9 mph 1009.8mb 65f 58f
4:50 1.3ft 5s 4s 2 4 mph 1009.3mb 63f 58f
3:50 1.3ft 5s 4s 4
mph
1008.8mb 62f 57f
2:50 1.6ft 5s 4s 4 7 mph 1008.7mb 62f 57f
1:50 2ft 3s 4s 9 11 mph 1008.3mb 63f 58f
12:50 2ft 3s 4s 11 13 mph 1007.9mb 65f 59f
Dom 06/28 11:50 2.5ft 4s 4s 16 18 mph 1007.3mb 66f 60f
10:50 2.5ft 4s 4s 16 18 mph 1007.2mb 67f 61f
9:50 2.5ft 8s 4s 18 20 mph 1006.9mb 67f 63f
8:50 2ft 8s 4s 18 20 mph 1005.9mb 67f 64f
7:50 1.6ft 8s 5s 16 18 mph 1004.7mb 67f 65f
6:50 1.3ft 5s 4s 9 11 mph 1003.8mb 67f 67f
5:50 1.3ft 5s 4s 11 13 mph 1003.4mb 67f 66f
4:50 1.3ft 5s 4s 9 11 mph 1003.2mb 65f 66f
3:50 1.6ft 5s 4s 11 13 mph 1003.3mb 64f 67f
2:50 2ft 5s 4s 9 11 mph 1003mb 62f 67f
1:50 2.5ft 4s 4s 9 11 mph 1002.9mb 62f 67f
12:50 2.5ft 4s 4s 2
mph
1003.1mb 64f 66f
11:50 2.5ft 5s 4s 7
mph
1003.1mb 65f 64f
10:50 3.5ft 6s 4s 11 13 mph 1003.4mb 66f 62f
9:50 4.5ft 4s 4s 18 25 mph 1004mb 67f 63f
8:50 5.5ft 5s 5s 31 38 mph 1004.4mb 67f 63f
7:50 5ft 5s 5s 31 40 mph 1004.9mb 67f 63f
6:50 5ft 6s 5s 34 43 mph 1005.9mb 66f 62f
5:50 4.5ft 6s 5s 34 45 mph 1006.6mb 66f 62f
4:50 4ft 5s 4s 31 38 mph 1008.7mb 65f 62f
3:50 3.5ft 4s 4s 29 36 mph 1010.6mb 64f 61f
2:50 2.5ft 4s 4s 27 34 mph 1012.4mb 63f 61f
1:50 2.5ft 4s 3s 25 31 mph 1014.5mb 64f 61f
12:50 2.5ft 3s 3s 22 29 mph 1015.8mb 65f 62f
Sáb 06/27 11:50 2.5ft 3s 3s 25 29 mph 1016.8mb 66f 62f
10:50 2.5ft 3s 3s 20 25 mph 1018.4mb 67f 61f
9:50 2.5ft 4s 3s 20 25 mph 1019.3mb 67f 62f
8:50 2.5ft 3s 3s 20 25 mph 1019.3mb 68f 62f
7:50 2ft 3s 3s 20 25 mph 1019.8mb 68f 62f
6:50 1.3ft 3s 3s 18 20 mph 1020.4mb 67f 62f
5:50 1.3ft 3s 3s 16 18 mph 1020.3mb 67f 62f
4:50 1ft 3s 3s 13 16 mph 1021mb 67f 62f
3:50 1ft 3s 3s 11 13 mph 1021.3mb 66f 61f
2:50 1ft 3s 3s 11 13 mph 1021.1mb 66f 61f
1:50 0.7ft  -  4s 11 13 mph 1021.1mb 65f 61f
12:50 0.7ft  -  4s 9 11 mph 1021.3mb 66f 60f
11:50 0.7ft  -  4s 11
mph
1021.4mb 67f 61f
10:50 0.7ft  -  4s 7 9 mph 1021.6mb 67f 61f
9:50 1ft 9s 4s 7 9 mph 1021.6mb 68f 62f
8:50 1ft 4s 4s 7 9 mph 1021.9mb 67f 62f
7:50 0.7ft  -  4s 7 9 mph 1021.2mb 67f 63f
6:50 0.7ft  -  4s 4 7 mph 1020.6mb 67f 64f
5:50 0.3ft  -  4s 7
mph
1020mb 67f 63f
4:50 0.7ft  -  3s 4 7 mph 1019.6mb 67f 62f
3:50 0.7ft  -  3s 4 7 mph 1019.3mb 66f 62f
2:50 0.7ft  -  3s 4 7 mph 1018.8mb 65f 60f
1:50 1ft 3s 3s 7 9 mph 1018.3mb 64f 61f
12:50 1.3ft 3s 3s 11 13 mph 1018mb 65f 63f
Sex 06/26 11:50 1.3ft 3s 3s 13 16 mph 1017.9mb 66f 64f
10:50 1.3ft 3s 3s 13 16 mph 1017.6mb 67f 64f